Flag for Austria Weather past 2 weeks in St. Pölten, Lower Austria, Austria

Now
90 °F

Passing clouds.


Feels Like: 90 °F
Forecast: 64 / 88 °F
Wind: 15 mph from Southeast

Location: Tulln Airport

Current Time: Aug 4, 2015 at 6:25:42 PM

Latest Report: Aug 4, 2015 at 5:50 PM


Visibility: 19 mi

Pressure: 29.89 "Hg

Humidity: 38%

Dew point: 61 °F

Location of St. PöltenLocation

Historic Weather in St. Pölten — Graph

°F

St. Pölten temperature yesterday

Maximum temperature yesterday: 86 °F (at 3:50 PM)
Minimum temperature yesterday: 63 °F (at 5:50 AM)
Average temperature yesterday: 74 °F

Past Weeks' High & Low Weather Summary

 TemperatureHumidityPressure
High100 °F (Jul 22, 2:50 PM)100% (Jul 29, 6:50 AM)30.15 "Hg (Jul 29, 6:50 AM)
Low57 °F (Jul 28, 5:50 AM)27% (Jul 22, 2:50 PM)29.71 "Hg (Jul 25, 5:50 AM)
Average74 °F61%29.93 "Hg
* Reported Jul 20 4:50 PM — Aug 4 4:50 PM, St. Pölten, Weather by CustomWeather, © 2015

Note: Actual official high and low records may vary slightly from our data, if they occured in-between our weather recording intervals... More about our weather records

Advertising

St. Pölten weather history for previous 24 hours

 ConditionsComfort  
Time TempWeatherWind HumidityBarometerVisibility
4:50 PM
Tue, Aug 4
90 °FPassing clouds.17 mph41%29.89 "Hg19 mi
3:50 PM90 °FPassing clouds.15 mph41%29.92 "Hg19 mi
2:50 PM90 °FPassing clouds.15 mph43%29.92 "Hg19 mi
1:50 PM90 °FPassing clouds.16 mph43%29.95 "Hg19 mi
12:50 PM88 °FPassing clouds.14 mph43%29.95 "Hg16 mi
11:50 AM86 °FPassing clouds.13 mph49%29.98 "Hg16 mi
10:50 AM84 °FPassing clouds.12 mph51%29.98 "Hg16 mi
9:50 AM81 °FSunny.8 mph58%30.01 "Hg16 mi
8:50 AM77 °FSunny.6 mph65%30.01 "Hg12 mi
7:50 AM70 °FSunny.5 mph83%30.01 "Hg9 mi
6:50 AM63 °FSunny.2 mph94%30.01 "Hg4 mi
5:50 AM61 °FFog.3 mph100%30.01 "Hg7 mi
10:50 PM
Mon, Aug 3
68 °FClear.2 mph83%30.07 "Hg12 mi
9:50 PM72 °FPassing clouds.2 mph73%30.07 "Hg12 mi
8:50 PM73 °FPassing clouds.2 mph69%30.07 "Hg16 mi
7:50 PM81 °FPassing clouds.6 mph54%30.04 "Hg16 mi
6:50 PM82 °FPassing clouds.6 mph48%30.04 "Hg16 mi
Weather by CustomWeather, © 2015

See weather overviewHow to use our weather pages